Flag for Russia Weather past 2 weeks in Yakutsk, Russia

Now
-2 °F

Sunny.


Feels Like: -14 °F
Forecast: -13 / 11 °F
Wind: 6 mph from West

Location: Jakutsk

Current Time: Apr 2, 2015 at 10:49:58 AM

Latest Report: Apr 2, 2015 at 10:00 AM


Visibility: 10 mi

Pressure: 30.12 "Hg

Humidity: 49%

Dew point: -17 °F

Location of YakutskLocation

Historic Weather in Yakutsk — Graph

°F

Yakutsk temperature yesterday

Maximum temperature yesterday: 18 °F (at 12:00 AM)
Minimum temperature yesterday: -6 °F (at 11:00 PM)
Average temperature yesterday: 7 °F

Past Weeks' High & Low Weather Summary

 TemperatureHumidityPressure
High43 °F (Mar 25, 2:00 PM)100% (Mar 24, 12:00 PM)30.24 "Hg (Mar 24, 12:00 PM)
Low-13 °F (Mar 23, 5:30 AM)32% (Mar 30, 4:30 PM)29.00 "Hg (Mar 26, 4:30 AM)
Average12 °F65%29.79 "Hg
* Reported Mar 18 9:00 AM — Apr 2 9:30 AM, Yakutsk, Weather by CustomWeather, © 2015

Note: Actual official high and low records may vary slightly from our data, if they occured in-between our weather recording intervals... More about our weather records

Advertising

Yakutsk weather history for previous 24 hours

 ConditionsComfort  
Time TempWeatherWind HumidityBarometerVisibility
9:30 AM
Thu, Apr 2
-4 °FSunny.8 mph49%30.09 "Hg10 mi
9:00 AM-6 °FSunny.6 mph54%30.09 "Hg10 mi
8:30 AM-6 °FSunny.8 mph49%30.09 "Hg10 mi
8:00 AM-8 °FSunny.8 mph53%30.09 "Hg10 mi
7:30 AM-9 °FSunny.6 mph58%30.09 "Hg10 mi
7:00 AM-11 °FSunny.8 mph58%30.09 "Hg10 mi
6:30 AM-13 °FSunny.6 mph63%30.07 "Hg10 mi
6:00 AM-13 °FSunny.3 mph63%30.07 "Hg10 mi
5:30 AM-13 °FClear.6 mph63%30.07 "Hg10 mi
5:00 AM-13 °FClear.6 mph63%30.04 "Hg10 mi
4:30 AM-11 °FClear.6 mph58%30.04 "Hg10 mi
4:00 AM-9 °FClear.6 mph53%30.04 "Hg10 mi
3:30 AM-9 °FClear.6 mph58%30.01 "Hg10 mi
3:00 AM-9 °FClear.3 mph58%30.01 "Hg10 mi
2:30 AM-8 °FClear.6 mph53%30.01 "Hg10 mi
2:00 AM-8 °FClear.6 mph53%30.01 "Hg10 mi
1:30 AM-8 °FClear.3 mph53%30.01 "Hg10 mi
1:00 AM-8 °FClear.3 mph53%30.01 "Hg10 mi
12:30 AM-9 °FClear.3 mph58%30.01 "Hg10 mi
12:00 AM-6 °FClear.3 mph49%30.01 "Hg10 mi
11:30 PM
Wed, Apr 1
-6 °FClear.1 mph54%30.01 "Hg10 mi
11:00 PM-6 °FClear.3 mph54%30.01 "Hg10 mi
10:30 PM-4 °FClear.3 mph49%30.01 "Hg10 mi
10:00 PM-4 °FClear.3 mph49%29.98 "Hg10 mi
9:30 PM-2 °FClear.3 mph45%29.98 "Hg10 mi
9:00 PM-2 °FClear.6 mph45%29.98 "Hg10 mi
8:30 PM0 °FClear.6 mph45%29.98 "Hg10 mi
8:00 PM0 °FClear.8 mph45%29.95 "Hg10 mi
7:30 PM1 °FClear.10 mph42%29.95 "Hg10 mi
7:00 PM3 °FSunny.8 mph38%29.92 "Hg10 mi
6:30 PM3 °FSunny.13 mph42%29.92 "Hg10 mi
6:00 PM5 °FSunny.13 mph39%29.89 "Hg10 mi
5:30 PM7 °FSunny.13 mph39%29.86 "Hg10 mi
5:00 PM7 °FSunny.10 mph43%29.86 "Hg10 mi
4:30 PM9 °FSunny.10 mph43%29.86 "Hg10 mi
4:00 PM9 °FSunny.10 mph47%29.83 "Hg10 mi
3:30 PM9 °FSunny.10 mph47%29.83 "Hg10 mi
3:00 PM10 °FSunny.8 mph47%29.80 "Hg10 mi
2:30 PM9 °FOvercast.8 mph61%29.80 "HgN/A
2:00 PM9 °FLight snow. More clouds than sun.8 mph72%29.80 "Hg2 mi
1:30 PM9 °FLight snow. Overcast.10 mph72%29.80 "Hg1 mi
1:00 PM9 °FLight snow. Overcast.10 mph72%29.77 "Hg2 mi
12:30 PM10 °FLight snow. Overcast.8 mph52%29.77 "Hg2 mi
11:30 AM9 °FMore clouds than sun.6 mph51%29.74 "HgN/A
11:00 AM9 °FSunny.3 mph51%29.74 "Hg10 mi
10:30 AM9 °FSunny.3 mph51%29.74 "Hg10 mi
10:00 AM7 °FSunny.6 mph56%29.74 "Hg10 mi
Weather by CustomWeather, © 2015

See weather overviewHow to use our weather pages